Regional Weather Roundup
Issued by NWS

Home | Current Version | Previous Version | Text Only | Print | Product List | Glossary Off
Versions: 1 2 3 4 5 6 7 8 9 10 11 12 13 14 15 16 17 18 19 20 21 22 23 24 25 26 27 28 29 30 31 32 33 34 35 36 37 38 39 40 41 42 43 44 45 46 47 48 49 50

000
ASUS43 KOAX 201502
RWRNE

WEATHER ROUNDUP FOR NEBRASKA
NATIONAL WEATHER SERVICE OMAHA NE
1000 AM CDT SUN APR 20 2014

NOTES: SATELLITE DATA IS BEING USED TO AUGMENT CLOUD COVER ABOVE
       12000 FEET.
       "FAIR" INDICATES FEW OR NO CLOUDS BELOW 12,000 FEET WITH NO
       SIGNIFICANT WEATHER AND/OR OBSTRUCTIONS TO VISIBILITY.

  * THESE STATIONS DO NOT REPORT WEATHER SUCH AS RAIN...SNOW OR FOG.

NEZ001>004-019>022-054>056-201600-
NEBRASKA PANHANDLE

CITY           SKY/WX    TMP DP  RH WIND       PRES   REMARKS
SCOTTSBLUFF    SUNNY     57  41  55 CALM      30.01S
ALLIANCE       SUNNY     58  43  57 S12       29.99S
CHADRON        SUNNY     61  45  55 SW8       29.94S
KIMBALL        PTSUNNY   58  43  56 W3        30.04S
SIDNEY         MOSUNNY   57  43  59 S9        30.05R
$$

NEZ057>060-069>072-079>082-201600-
SOUTHWEST NEBRASKA

CITY           SKY/WX    TMP DP  RH WIND       PRES   REMARKS
NORTH PLATTE   MOSUNNY   57  42  57 VRB3      30.02R
IMPERIAL       MOSUNNY   53  44  71 NE3       30.02S
LEXINGTON      PTSUNNY   57  42  57 CALM      30.01R
MCCOOK         PTSUNNY   55  49  80 NE6       30.01S
OGALLALA       SUNNY     55  40  58 CALM      30.02F
$$

NEZ005>010-023>029-035>040-094-201600-
NORTH CENTRAL NEBRASKA

CITY           SKY/WX    TMP DP  RH WIND       PRES   REMARKS
VALENTINE      SUNNY     62  29  28 SE14      29.98F
AINSWORTH      SUNNY     62  36  38 SE8       29.99F
BROKEN BOW     MOSUNNY   64  45  49 E6        30.00S
O`NEILL        SUNNY     63  32  30 E10       29.99S
ORD            MOSUNNY   59  39  47 CALM      29.99S
THEDFORD       SUNNY     63  38  39 SE9       30.01S
$$

NEZ041-046>049-061>064-073>077-083>087-201600-
SOUTH CENTRAL NEBRASKA

CITY           SKY/WX    TMP DP  RH WIND       PRES   REMARKS
GRAND ISLAND   PTSUNNY   64  48  56 W5        30.00S
AURORA         PTSUNNY   66  51  58 SW16      29.99S
HASTINGS       PTSUNNY   65  50  58 SW8       29.99S
HEBRON         CLOUDY    69  51  52 SW15G21   30.00S
HOLDREGE       PTSUNNY   59  47  64 CALM      30.00S
KEARNEY *      PTSUNNY   59  45  58 NE3       30.00S
YORK           PTSUNNY   64  52  63 SW15      30.00R
$$

NEZ011>018-030>034-042>045-201600-
NORTHEAST NEBRASKA

CITY           SKY/WX    TMP DP  RH WIND       PRES   REMARKS
NORFOLK        PTSUNNY   63  47  55 CALM      29.95F
ALBION         PTSUNNY   57  42  56 NW3       29.98R
BLAIR          MOSUNNY   69  50  51 SW14      29.99R
COLUMBUS *     PTSUNNY   61  52  72 SW9       29.99R
FREMONT        MOSUNNY   69  50  50 SW10      29.99S
TEKAMAH        MOSUNNY   70  50  49 SW13      29.97F
$$

NEZ050>053-065>068-078-088>093-201600-
SOUTHEAST NEBRASKA

CITY           SKY/WX    TMP DP  RH WIND       PRES   REMARKS
LINCOLN        PTSUNNY   70  50  49 SW15      29.99S
OMAHA EPPLEY   PTSUNNY   69  50  50 S13       29.99S
BEATRICE       PTSUNNY   69  51  52 SW14G22   30.01S
FALLS CITY     MOSUNNY   73  52  47 SW20G28   30.01S
NEBRASKA CITY  MOSUNNY   72  51  47 SW18      30.00S
PLATTSMOUTH    MOSUNNY   70  48  46 S14       30.01R
$$

NEZ044-045-051>053-067-201600-
OMAHA AREA

CITY           SKY/WX    TMP DP  RH WIND       PRES   REMARKS
OMAHA EPPLEY   PTSUNNY   69  50  50 S13       29.99S
BLAIR          MOSUNNY   69  50  51 SW14      29.99R
FREMONT        MOSUNNY   69  50  50 SW10      29.99S
MILLARD        MOSUNNY   69  51  51 SW8       29.99S
OFFUTT AFB     MOSUNNY   70  52  52 S12       30.00R
PLATTSMOUTH    MOSUNNY   70  48  46 S14       30.01R
WAHOO          FAIR      69  49  48 SW12G17   29.98S
$$



USA.gov is the U.S. government's official web portal to all federal, state and local government web resources and services.